sat.trackr.live / text

‹ back to catalog

STARLINK-34653

NORAD 64917 · 2025-157P

PAYLOAD ACTIVE UNKNOWN

§ Identity

Operator
Country
US
Launch date
2025-07-26
Launch site
AFETR
Launch vehicle
Mass (kg)
RCS (m²)

Purposes: comms

External: N2YO · Heavens-Above · Gunter

§ Orbital elements

Epoch: 2026-09-20T02:02:02.537376Z

Period
94.01 min
Inclination
53.1578°
Eccentricity
0.0002388
Mean motion
15.31710368 rev/d
Perigee alt
469.1 km
Apogee alt
472.3 km
Semi-major
6,848.8 km
B*
4.0274e-4
RAAN
161.5034°
Arg perigee
70.1829°
Mean anomaly
289.9430°
Rev number
6,585

§ Raw data

STARLINK-346531 64917U 25157P   26263.08475159  .00012157  00000+0  40274-3 0  99902 64917  53.1578 161.5034 0002388  70.1829 289.9430 15.31710368 65850

JSON: /api/v1/satellites/64917 · /tle

For live sub-satellite position, see the globe view (requires WebGL).

§ Visibility from observer

Set your observer location to see the next 7 days of passes ≥ 10°. The values pass through the URL so the page stays shareable.

No JS? Fill the form by hand. The geolocation button needs JavaScript.